This is the latest recevied weather packets stored in our database for station/object DB0ROB-10. If no packets are shown the sender has not sent any weather packets the latest 10 day(s).
| Time | Temp. | Humidity | Pressure | Rain* | Wind** | Luminosity | Snow |
|---|---|---|---|---|---|---|---|
| 1777505474 | 6.11° C | 36% | 1021.2 hPa | - | - | - | - |
| 1777504574 | 6.11° C | 36% | 1021.4 hPa | - | - | - | - |
| 1777503673 | 6.67° C | 36% | 1021.5 hPa | - | - | - | - |
| 1777502773 | 7.22° C | 35% | 1021.3 hPa | - | - | - | - |
| 1777501872 | 7.22° C | 35% | 1021.6 hPa | - | - | - | - |
| 1777500972 | 7.22° C | 34% | 1021.6 hPa | - | - | - | - |
| 1777500072 | 7.78° C | 35% | 1021.3 hPa | - | - | - | - |
| 1777499172 | 7.78° C | 33% | 1021.1 hPa | - | - | - | - |
| 1777498271 | 8.33° C | 33% | 1021.4 hPa | - | - | - | - |
| 1777497371 | 8.33° C | 31% | 1021.4 hPa | - | - | - | - |
| 1777496470 | 8.33° C | 31% | 1021.2 hPa | - | - | - | - |
| 1777495570 | 8.89° C | 31% | 1021.3 hPa | - | - | - | - |
| 1777494670 | 8.89° C | 32% | 1021.3 hPa | - | - | - | - |
| 1777493770 | 9.44° C | 31% | 1021.3 hPa | - | - | - | - |
| 1777492870 | 8.89° C | 31% | 1021.4 hPa | - | - | - | - |
| 1777491974 | 10° C | 30% | 1021.2 hPa | - | - | - | - |
| 1777491074 | 10° C | 30% | 1021.1 hPa | - | - | - | - |
| 1777490174 | 10.56° C | 29% | 1020.9 hPa | - | - | - | - |
| 1777489274 | 10.56° C | 30% | 1021 hPa | - | - | - | - |
| 1777488374 | 11.11° C | 29% | 1020.7 hPa | - | - | - | - |
| 1777487474 | 11.11° C | 29% | 1020.6 hPa | - | - | - | - |
| 1777486574 | 11.67° C | 29% | 1020.5 hPa | - | - | - | - |
| 1777485674 | 12.22° C | 29% | 1020.2 hPa | - | - | - | - |
| 1777484773 | 12.78° C | 29% | 1020.3 hPa | - | - | - | - |
| 1777483873 | 12.78° C | 29% | 1020 hPa | - | - | - | - |
* Rain since midnight (hover to see other rain measurements)
** Current wind speed in m/s (hover to see current wind gust speed)